This demonstration page uses our WeatherBlox Daily Observations layout. Learn more.

Hourly Observations for March 22, 2020

Temp ( °F °C ) Dew Point ( °F °C ) Humidity (%) Winds ( mph kmh ) Pressure ( in mb ) Visibility ( mi km ) Precip ( " mm )
12:15 am 00:15 Cloudy 43 6 28 -2 57 57 N 9 15 30.47 1032 10 16.0934 0 0
12:35 am 00:35 Cloudy 43 6 28 -2 57 57 NNE 5 7 30.47 1032 10 16.0934 0 0
12:55 am 00:55 Cloudy 43 6 28 -2 57 57 N 7 11 30.47 1032 10 16.0934 0 0
1:15 am 01:15 Cloudy 43 6 28 -2 57 57 N 8 13 30.47 1032 10 16.0934 0 0
1:35 am 01:35 Cloudy 43 6 28 -2 57 57 N 7 11 30.47 1032 10 16.0934 0 0
1:55 am 01:55 Cloudy 43 6 27 -3 53 53 N 7 11 30.48 1032 10 16.0934 0 0
2:15 am 02:15 Cloudy 43 6 27 -3 53 53 N 7 11 30.48 1032 10 16.0934 0 0
2:35 am 02:35 Cloudy 43 6 25 -4 49 49 NNE 7 11 30.49 1033 10 16.0934 0 0
2:55 am 02:55 Cloudy 43 6 25 -4 49 49 NNE 9 15 30.49 1033 10 16.0934 0 0
3:15 am 03:15 Cloudy 41 5 25 -4 53 53 NNE 6 9 30.48 1032 10 16.0934 0 0
3:35 am 03:35 Cloudy 41 5 27 -3 57 57 NNE 6 9 30.48 1032 10 16.0934 0 0
3:55 am 03:55 Cloudy 41 5 25 -4 53 53 NNE 9 15 30.49 1033 10 16.0934 0 0
4:15 am 04:15 Cloudy 41 5 23 -5 49 49 NNE 9 15 30.49 1033 10 16.0934 0 0
4:35 am 04:35 Cloudy 39 4 23 -5 52 52 NNE 8 13 30.51 1033 10 16.0934 0 0
4:55 am 04:55 Cloudy 39 4 23 -5 52 52 NNE 6 9 30.51 1033 10 16.0934 0 0
5:15 am 05:15 Cloudy 37 3 23 -5 56 56 NNE 9 15 30.51 1033 10 16.0934 0 0
5:35 am 05:35 Cloudy 37 3 23 -5 56 56 NNE 6 9 30.53 1034 10 16.0934 0 0
5:55 am 05:55 Cloudy 37 3 21 -6 52 52 NNE 8 13 30.53 1034 10 16.0934 0 0
6:15 am 06:15 Mostly Cloudy 36 2 21 -6 56 56 NNE 8 13 30.54 1034 10 16.0934 0 0
6:35 am 06:35 Partly Cloudy 36 2 21 -6 56 56 NNE 10 17 30.55 1035 10 16.0934 0 0
6:55 am 06:55 Partly Cloudy 36 2 21 -6 56 56 NNE 10 17 30.56 1035 10 16.0934 0 0
7:15 am 07:15 Partly Cloudy 34 1 21 -6 60 60 NNE 10 17 30.57 1035 10 16.0934 0 0
7:35 am 07:35 Sunny 34 1 19 -7 56 56 NNE 13 20 30.58 1036 10 16.0934 0 0
7:55 am 07:55 Sunny 34 1 19 -7 56 56 NNE 8 13 30.59 1036 10 16.0934 0 0
8:15 am 08:15 Sunny 34 1 19 -7 56 56 NNE 7 11 30.6 1036 10 16.0934 0 0
8:35 am 08:35 Sunny 34 1 21 -6 60 60 NNE 7 11 30.6 1036 10 16.0934 0 0
8:55 am 08:55 Sunny 36 2 21 -6 56 56 NE 9 15 30.6 1036 10 16.0934 0 0
9:15 am 09:15 Sunny 36 2 21 -6 56 56 NNE 8 13 30.62 1037 10 16.0934 0 0
9:35 am 09:35 Sunny with Nearby Thunderstorms 36 2 21 -6 56 56 NNE 7 11 30.61 1037 10 16.0934 0 0
9:55 am 09:55 Sunny 37 3 21 -6 52 52 NNE 9 15 30.61 1036 10 16.0934 0 0
10:15 am 10:15 Sunny 37 3 23 -5 56 56 NE 7 11 30.62 1037 10 16.0934 0 0
10:35 am 10:35 Sunny 41 5 23 -5 49 49 NNE 5 7 30.62 1037 10 16.0934 0 0
10:55 am 10:55 Sunny 41 5 23 -5 49 49 NNE 6 9 30.61 1037 10 16.0934 0 0
11:15 am 11:15 Sunny 41 5 23 -5 49 49 N 6 9 30.62 1037 10 16.0934 0 0
11:35 am 11:35 Sunny 43 6 25 -4 49 49 ENE 5 7 30.62 1037 10 16.0934 0 0
11:55 am 11:55 Sunny 43 6 25 -4 49 49 Calm 30.62 1037 10 16.0934 0 0
12:15 pm 12:15 Partly Cloudy 45 7 25 -4 46 46 Calm 30.61 1037 10 16.0934 0 0
12:35 pm 12:35 Sunny 45 7 23 -5 42 42 Calm 30.61 1037 10 16.0934 0 0
12:55 pm 12:55 Sunny 46 8 25 -4 43 43 NE 5 7 30.6 1036 10 16.0934 0 0
1:15 pm 13:15 Sunny 46 8 25 -4 43 43 E 3 6 30.59 1036 10 16.0934 0 0
1:35 pm 13:35 Sunny 46 8 25 -4 43 43 E 9 15 30.58 1036 10 16.0934 0 0
1:55 pm 13:55 Sunny 48 9 25 -4 40 40 E 5 7 30.58 1035 10 16.0934 0 0
2:15 pm 14:15 Sunny 50 10 27 -3 40 40 E 7 11 30.57 1035 10 16.0934 0 0
2:35 pm 14:35 Sunny 50 10 25 -4 37 37 E 6 9 30.56 1035 10 16.0934 0 0
2:55 pm 14:55 Sunny 50 10 27 -3 40 40 SE 6 9 30.55 1034 10 16.0934 0 0
3:15 pm 15:15 Sunny 50 10 27 -3 40 40 ENE 6 9 30.54 1034 10 16.0934 0 0
3:35 pm 15:35 Sunny 50 10 27 -3 40 40 E 8 13 30.54 1034 10 16.0934 0 0
3:55 pm 15:55 Sunny 50 10 27 -3 40 40 SE 13 20 30.54 1034 10 16.0934 0 0
4:15 pm 16:15 Sunny 50 10 27 -3 40 40 E 9 15 30.54 1034 10 16.0934 0 0
4:35 pm 16:35 Sunny 50 10 27 -3 40 40 SE 9 15 30.53 1034 10 16.0934 0 0
4:55 pm 16:55 Sunny 50 10 27 -3 40 40 SE 8 13 30.53 1034 10 16.0934 0 0
5:15 pm 17:15 Sunny 50 10 27 -3 40 40 SE 12 19 30.52 1033 10 16.0934 0 0
5:35 pm 17:35 Sunny 50 10 27 -3 40 40 ESE 8 13 30.51 1033 10 16.0934 0 0
5:55 pm 17:55 Sunny 50 10 28 -2 43 43 ESE 14 22 30.51 1033 10 16.0934 0 0
6:15 pm 18:15 Sunny 48 9 28 -2 46 46 ESE 12 19 30.51 1033 10 16.0934 0 0
6:35 pm 18:35 Sunny 48 9 28 -2 46 46 SE 10 17 30.51 1033 10 16.0934 0 0
6:55 pm 18:55 Partly Cloudy 48 9 30 -1 50 50 SE 6 9 30.52 1033 10 16.0934 0 0
7:15 pm 19:15 Mostly Cloudy 48 9 30 -1 50 50 SSE 13 20 30.53 1034 10 16.0934 0 0
7:35 pm 19:35 Cloudy 48 9 32 0 54 54 SSE 12 19 30.53 1034 10 16.0934 0 0
7:55 pm 19:55 Cloudy 46 8 34 1 62 62 ESE 10 17 30.53 1034 10 16.0934 0 0
8:15 pm 20:15 Cloudy 46 8 34 1 62 62 SE 9 15 30.52 1034 10 16.0934 0 0
8:35 pm 20:35 Cloudy 46 8 37 3 71 71 ESE 14 22 30.52 1034 10 16.0934 0 0
8:55 pm 20:55 Cloudy 45 7 36 2 71 71 SE 13 20 30.54 1034 10 16.0934 0 0
9:15 pm 21:15 Cloudy 45 7 36 2 71 71 SE 12 19 30.54 1034 10 16.0934 0 0
9:35 pm 21:35 Cloudy 45 7 36 2 71 71 ESE 9 15 30.54 1034 10 16.0934 0 0
9:55 pm 21:55 Cloudy 45 7 37 3 76 76 ESE 12 19 30.54 1034 10 16.0934 0 0
10:15 pm 22:15 Cloudy 45 7 37 3 76 76 E 10 17 30.54 1034 10 16.0934 0 0
10:35 pm 22:35 Cloudy 45 7 37 3 76 76 ESE 12 19 30.53 1034 10 16.0934 0 0
10:55 pm 22:55 Cloudy 45 7 36 2 71 71 SE 13 20 30.55 1035 10 16.0934 0 0
11:15 pm 23:15 Cloudy 45 7 36 2 71 71 SE 10 17 30.54 1034 10 16.0934 0 0
11:35 pm 23:35 Cloudy 43 6 36 2 76 76 ESE 14 22 30.53 1034 10 16.0934 0 0
11:55 pm 23:55 Cloudy 43 6 36 2 76 76 SE 13 20 30.54 1034 10 16.0934 0 0

Powered by AerisWeather